Location: ??????
(36.0418°N, 43.6351°E)
Time: 05:15:00
(UTC+00:00)

Cosmos 1190 Rocket - Pass Details

Date: 07 March 2021
Orbit: 757 x 779 km, 74.1° (Epoch: 19 April)

Event Time Altitude Azimuth Distance (km) Brightness Sun altitude
Rises 02:05:55 0° 192° (SSW) 3,244 7.1 -17.3°
Reaches altitude 10° 02:08:17 10° 191° (S) 2,321 6.3 -16.9°
Maximum altitude 02:13:34 78° 106° (ESE) 799 4.2 -15.8°
Drops below altitude 10° 02:18:52 10° 20° (NNE) 2,334 6.8 -14.7°
Sets 02:21:15 0° 20° (NNE) 3,263 7.6 -14.2°
